Date String (YYYY-MM-DD hh:mm:ss) UTC,Instrument flags,Ambient pressure (hPa),Sample flow (lpm),Bypass flow (lpm),Sample temperature (°C),Ambient temperature (°C),ASC tube jacket temperature (°C),LED temperature (°C),Box temperature (°C),Sample RH (%),Span deviation,Mass concentration (μg/m³),Mass concentration (μg/m³),Mass concentration (μg/m³)
DateTimeUTC,F1_M11,P_M11,Q1_M11,Q2_M11,T1_M11,T2_M11,T3_M11,T4_M11,T5_M11,U1_M11,ZSPAN_M11,X0_M11,X2_M11,X1_M11
2022-01-04 11:00:00,,0817.5,5.01,0.00,22.1,21.4,00.0,31.2,23.7,06.3,0000.0,0000.57,0000.41,0000.34
2022-01-04 11:01:00,,0817.5,5.00,0.00,22.1,21.4,00.0,31.2,23.7,06.3,0000.0,0000.54,0000.40,0000.33
2022-01-04 11:02:00,,0817.4,5.00,0.00,22.0,21.4,00.0,31.2,23.7,06.3,0000.0,0000.54,0000.39,0000.32
2022-01-04 11:03:00,,0817.3,5.01,0.00,22.0,21.4,00.0,31.1,23.7,06.3,0000.0,0000.53,0000.38,0000.32
2022-01-04 11:04:00,,0817.4,4.99,0.00,22.0,21.4,00.0,31.1,23.7,06.2,0000.0,0000.54,0000.38,0000.32
2022-01-04 11:05:00,,0817.5,5.00,0.00,22.0,21.4,00.0,31.1,23.7,06.2,0000.0,0001.27,0000.40,0000.33
2022-01-04 11:06:00,,0817.3,5.01,0.00,22.0,21.4,00.0,31.1,23.7,06.0,0000.0,0001.90,0000.39,0000.33
2022-01-04 11:07:00,,0817.3,4.99,0.00,22.0,21.3,00.0,31.1,23.7,05.9,0000.0,0001.88,0000.38,0000.32
2022-01-04 11:08:00,,0817.3,5.01,0.00,22.0,21.3,00.0,31.1,23.6,05.9,0000.0,0001.89,0000.38,0000.32
2022-01-04 11:09:00,,0817.4,5.01,0.00,22.0,21.2,00.0,31.1,23.6,05.9,0000.0,0001.91,0000.39,0000.32
2022-01-04 11:10:00,,0817.3,5.00,0.00,22.0,21.2,00.0,31.1,23.5,06.0,0000.0,0002.59,0000.40,0000.32
2022-01-04 11:11:00,,0817.3,4.99,0.00,21.9,21.2,00.0,31.1,23.6,05.9,0000.0,0003.34,0000.42,0000.32
2022-01-04 11:12:00,,0817.4,5.00,0.00,21.9,21.3,00.0,31.1,23.6,05.9,0000.0,0003.34,0000.42,0000.33
2022-01-04 11:13:00,,0817.3,5.00,0.00,22.0,21.9,00.0,31.1,23.8,05.7,0000.0,0003.33,0000.42,0000.33
2022-01-04 11:14:00,,0817.3,5.00,0.00,22.2,22.8,00.0,31.1,24.1,05.8,0000.0,0003.38,0000.43,0000.33
2022-01-04 11:15:00,,0817.3,5.00,0.00,22.3,23.1,00.0,31.2,24.3,05.7,0000.0,0003.41,0000.44,0000.33
2022-01-04 11:16:00,,0817.4,5.00,0.00,22.3,22.8,00.0,31.2,24.2,05.9,0000.0,0002.68,0000.44,0000.32
2022-01-04 11:17:00,,0817.3,5.00,0.00,22.3,22.6,00.0,31.2,24.1,06.0,0000.0,0002.04,0000.43,0000.32
2022-01-04 11:18:00,,0817.2,5.01,0.00,22.3,22.4,00.0,31.2,24.1,05.7,0000.0,0002.00,0000.42,0000.32
2022-01-04 11:19:00,,0817.3,4.99,0.00,22.3,22.2,00.0,31.2,24.0,05.8,0000.0,0002.00,0000.42,0000.32
2022-01-04 11:20:00,,0817.1,5.00,0.00,22.3,22.1,00.0,31.2,24.0,05.8,0000.0,0001.98,0000.40,0000.31
2022-01-04 11:21:00,,0817.1,4.99,0.00,22.3,21.9,00.0,31.2,24.0,05.5,0000.0,0001.51,0000.39,0000.31
2022-01-04 11:22:00,,0817.2,5.01,0.00,22.3,21.8,00.0,31.2,23.9,05.8,0000.0,0000.56,0000.39,0000.31
2022-01-04 11:23:00,,0817.3,4.98,0.00,22.2,21.7,00.0,31.2,23.9,06.2,0000.0,0000.61,0000.41,0000.31
2022-01-04 11:24:00,,0817.2,5.00,0.00,22.2,21.6,00.0,31.2,23.8,06.1,0000.0,0000.62,0000.41,0000.30
2022-01-04 11:25:00,,0817.1,4.99,0.00,22.2,21.5,00.0,31.2,23.8,05.9,0000.0,0000.62,0000.40,0000.30
2022-01-04 11:26:00,,0817.0,5.01,0.00,22.1,21.4,00.0,31.2,23.7,05.6,0000.0,0000.57,0000.39,0000.30
2022-01-04 11:27:00,,0817.1,4.98,0.00,22.1,21.4,00.0,31.2,23.7,05.8,0000.0,0000.63,0000.41,0000.30
2022-01-04 11:28:00,,0817.1,5.01,0.00,22.1,21.3,00.0,31.2,23.7,06.0,0000.0,0000.65,0000.41,0000.30
2022-01-04 11:29:00,,0817.1,4.99,0.00,22.0,21.3,00.0,31.2,23.6,06.1,0000.0,0000.69,0000.43,0000.30
2022-01-04 11:30:00,,0817.1,4.99,0.00,22.0,21.2,00.0,31.2,23.6,06.2,0000.0,0000.67,0000.42,0000.30
2022-01-04 11:31:00,,0817.1,5.00,0.00,22.0,21.2,00.0,31.1,23.5,06.1,0000.0,0000.70,0000.44,0000.31
2022-01-04 11:32:00,,0817.1,5.01,0.00,21.9,21.1,00.0,31.1,23.5,06.1,0000.0,0000.73,0000.45,0000.31
2022-01-04 11:33:00,,0817.1,5.00,0.00,21.9,21.1,00.0,31.1,23.4,06.2,0000.0,0000.71,0000.44,0000.32
2022-01-04 11:34:00,,0817.2,5.00,0.00,21.9,21.1,00.0,31.1,23.4,06.2,0000.0,0000.76,0000.44,0000.32
2022-01-04 11:35:00,,0817.2,4.99,0.00,21.9,21.6,00.0,31.1,23.6,06.1,0000.0,0000.78,0000.46,0000.33
2022-01-04 11:36:00,,0817.2,5.01,0.00,22.1,22.4,00.0,31.1,24.0,06.1,0000.0,0000.75,0000.45,0000.34
2022-01-04 11:37:00,,0817.1,5.00,0.00,22.2,23.1,00.0,31.2,24.2,05.7,0000.0,0000.74,0000.45,0000.34
2022-01-04 11:38:00,,0817.2,5.01,0.00,22.3,22.9,00.0,31.2,24.2,05.9,0000.0,0000.65,0000.42,0000.34
2022-01-04 11:39:00,,0817.2,5.00,0.00,22.3,22.6,00.0,31.2,24.1,06.0,0000.0,0000.63,0000.42,0000.34
2022-01-04 11:40:00,,0817.2,5.01,0.00,22.3,22.3,00.0,31.2,24.0,06.0,0000.0,0000.61,0000.41,0000.34
2022-01-04 11:41:00,,0817.1,4.98,0.00,22.2,22.1,00.0,31.2,23.9,06.2,0000.0,0000.61,0000.41,0000.34
2022-01-04 11:42:00,,0817.0,5.00,0.00,22.2,21.9,00.0,31.2,23.9,06.0,0000.0,0000.59,0000.41,0000.34
2022-01-04 11:43:00,,0817.0,5.01,0.00,22.2,21.8,00.0,31.2,23.8,05.9,0000.0,0000.62,0000.42,0000.34
2022-01-04 11:44:00,,0817.0,4.99,0.00,22.2,21.7,00.0,31.2,23.8,05.6,0000.0,0000.57,0000.40,0000.34
2022-01-04 11:45:00,,0816.9,5.00,0.00,22.1,21.6,00.0,31.2,23.7,06.0,0000.0,0000.49,0000.38,0000.34
2022-01-04 11:46:00,,0816.9,5.01,0.00,22.1,21.5,00.0,31.2,23.6,05.7,0000.0,0000.51,0000.39,0000.33
2022-01-04 11:47:00,,0817.0,5.00,0.00,22.1,21.4,00.0,31.2,23.6,06.0,0000.0,0000.52,0000.40,0000.33
2022-01-04 11:48:00,,0817.0,5.00,0.00,22.0,21.3,00.0,31.2,23.6,06.3,0000.0,0000.53,0000.40,0000.33
2022-01-04 11:49:00,,0817.0,5.00,0.00,22.0,21.3,00.0,31.1,23.6,06.2,0000.0,0000.53,0000.40,0000.33
2022-01-04 11:50:00,,0816.9,4.99,0.00,22.0,21.2,00.0,31.1,23.5,06.2,0000.0,0000.55,0000.42,0000.33
2022-01-04 11:51:00,,0817.0,5.01,0.00,21.9,21.2,00.0,31.1,23.4,06.3,0000.0,0000.58,0000.44,0000.33
2022-01-04 11:52:00,,0817.1,4.98,0.00,21.9,21.2,00.0,31.1,23.5,06.3,0000.0,0000.62,0000.45,0000.34
2022-01-04 11:53:00,,0817.1,4.99,0.00,21.9,21.2,00.0,31.1,23.5,06.1,0000.0,0000.68,0000.47,0000.33
2022-01-04 11:54:00,,0817.0,5.01,0.00,21.9,21.1,00.0,31.1,23.5,06.0,0000.0,0000.64,0000.46,0000.33
2022-01-04 11:55:00,,0816.9,4.99,0.00,21.9,21.1,00.0,31.0,23.4,06.0,0000.0,0000.66,0000.47,0000.34
2022-01-04 11:56:00,,0817.0,5.00,0.00,21.9,19.4,00.0,30.3,23.4,06.2,0000.0,0002.19,0000.49,0000.35
2022-01-04 11:57:00,,0817.1,5.01,0.00,21.9,20.9,00.0,30.7,23.7,06.3,0000.0,0002.49,0000.48,0000.36
2022-01-04 11:58:00,,0817.2,5.00,0.00,22.1,22.7,00.0,31.1,24.0,06.1,0000.0,0002.50,0000.49,0000.36
2022-01-04 11:59:00,,0817.1,4.99,0.00,22.2,23.2,00.0,31.1,24.2,06.4,0000.0,0002.49,0000.49,0000.36
